Find Starlink 4505

NORAD ID: 53556 Int'l Des: 2022-101 Owner: SPXS Country: US Constellation: starlink operational
LEOCIRCULAR

当前视图

正在加载3D地球...

关于 Starlink 4505

正在加载描述...

即将过境

Passes for default location (London). Set your location on the main map for personalized predictions.

高度历史

Loading altitude history...

两行轨道根数

1 53556U 22101AF 26149.19960066 -.00000345 00000-0 -35979-5 0 9991
2 53556 53.2030 62.6895 0002004 63.2850 296.8347 15.08832006208467
Epoch: May 29, 2026 • Age: 22 hours

当前状态

高度 540.5 km
速度 7.60 km/s
星下点 31.88°N, 149.97°E
发射日期 Aug 19, 2022
运行时间 3.7 years
类型 internet

技术详情

分类 Payload
质量 300.00 kg
干质量 290.00 kg
总质量 300.00 kg
长度 0.20 m
直径 2.80 m
跨度 9.00 m
形状 Box + pan
制造商 SPXS
平台类型 Starlink
阶段状态 In Orbit
所有者/国家 SPXS/US

Most Searched